This demonstration page uses our WeatherBlox Daily Observations layout. Learn more.

38.89511, -77.03637

Hourly Observations for September 24, 2015

Temp ( °F °C ) Dew Point ( °F °C ) Humidity (%) Winds ( mph kmh ) Pressure ( in mb ) Visibility ( mi km ) Precip ( " mm )
12:52 am 00:52 Mostly Cloudy 64 18 54 12 68 68 N 5 7 30.24 1024 10 16.09344 0 0
1:52 am 01:52 Mostly Cloudy 64 18 55 13 73 73 N 3 6 30.24 1024 10 16.09344 0 0
2:52 am 02:52 Cloudy 64 18 55 13 73 73 ENE 5 7 30.24 1024 10 16.09344 0 0
3:52 am 03:52 Mostly Cloudy 61 16 55 13 83 83 N 6 9 30.24 1024 10 16.09344 0 0
4:52 am 04:52 Partly Cloudy 61 16 55 13 83 83 N 7 11 30.24 1024 10 16.09344 0 0
5:52 am 05:52 Mostly Cloudy 61 16 55 13 83 83 N 3 6 30.24 1024 10 16.09344 0 0
6:52 am 06:52 Mostly Cloudy 61 16 55 13 83 83 N 5 7 30.24 1024 10 16.09344 0 0
7:52 am 07:52 Mostly Cloudy 63 17 55 13 77 77 N 3 6 30.27 1025 10 16.09344 0 0
8:52 am 08:52 Mostly Cloudy 64 18 57 14 78 78 NE 3 6 30.27 1025 10 16.09344 0 0
9:52 am 09:52 Mostly Cloudy 70 21 55 13 60 60 NNE 7 11 30.3 1026 10 16.09344 0 0
10:52 am 10:52 Mostly Cloudy 72 22 52 11 50 50 NE 9 15 30.3 1026 10 16.09344 0 0
11:52 am 11:52 Mostly Cloudy 75 24 52 11 44 44 NE 10 17 30.27 1025 10 16.09344 0 0
12:52 pm 12:52 Cloudy 79 26 50 10 37 37 NE 14 22 30.27 1025 10 16.09344 0 0
1:52 pm 13:52 Cloudy 79 26 46 8 32 32 ENE 14 22 30.27 1025 10 16.09344 0 0
2:52 pm 14:52 Cloudy 79 26 48 9 34 34 ENE 12 19 30.27 1025 10 16.09344 0 0
3:52 pm 15:52 Mostly Cloudy 77 25 48 9 36 36 ENE 14 22 30.27 1025 10 16.09344 0 0
4:52 pm 16:52 Mostly Cloudy 79 26 52 11 39 39 NE 15 24 30.27 1025 10 16.09344 0 0
5:52 pm 17:52 Mostly Cloudy 75 24 52 11 44 44 ENE 10 17 30.24 1024 10 16.09344 0 0
6:52 pm 18:52 Mostly Cloudy 75 24 52 11 44 44 ENE 6 9 30.24 1024 10 16.09344 0 0
7:52 pm 19:52 Mostly Cloudy 73 23 54 12 50 50 NE 6 9 30.24 1024 10 16.09344 0 0
8:52 pm 20:52 Mostly Cloudy 72 22 55 13 57 57 ENE 7 11 30.27 1025 10 16.09344 0 0
9:52 pm 21:52 Mostly Cloudy 70 21 54 12 57 57 ENE 7 11 30.27 1025 10 16.09344 0 0
10:52 pm 22:52 Mostly Cloudy 70 21 55 13 60 60 NE 8 13 30.27 1025 10 16.09344 0 0
11:52 pm 23:52 Mostly Cloudy 68 20 54 12 60 60 NE 7 11 30.3 1026 10 16.09344 0 0

Powered by AerisWeather